Regional Weather Roundup
Issued by NWS

Home | Current Version | Previous Version | Graphics & Text | Print | Product List | Glossary On
Versions: 1 2 3 4 5 6 7 8 9 10 11 12 13 14 15 16 17 18 19 20 21 22 23 24 25 26 27 28 29 30 31 32 33 34 35 36 37 38 39 40 41 42 43 44 45 46 47 48 49 50
000
ASUS43 KDTX 290010
RWRMI
MICHIGAN HOURLY REGIONAL WEATHER ROUNDUP
NATIONAL WEATHER SERVICE DETROIT/PONTIAC MI
700 PM EST FRI NOV 28 2014

NOTE: "FAIR" INDICATES FEW OR NO CLOUDS BELOW 12,000 FEET WITH NO
SIGNIFICANT WEATHER AND/OR OBSTRUCTION TO VISIBILITY.

MIZ047>049-052>055-059>063-066>070-074>076-081>083-290100-
SOUTHEAST LOWER MICHIGAN

CITY           SKY/WX    TMP DP  RH WIND       PRES   REMARKS
ADRIAN         CLOUDY    26  21  81 S9        30.13F WCI  17
6HR MIN TEMP:  24; 6HR MAX TEMP:  27; 6HR PCP: TRACE;

ALMA           LGT SNOW  24  22  91 SE6       30.09F WCI  17
6HR MIN TEMP:  24; 6HR MAX TEMP:  26;

ANN ARBOR      CLOUDY    25  20  81 S6        30.13F WCI  18
BAD AXE        LGT SNOW  24  20  87 SE5       30.13F WCI  18
6HR MIN TEMP:  23; 6HR MAX TEMP:  25;

CARO           CLOUDY    23  19  86 SE6       30.12F WCI  16
DETROIT CITY   LGT SNOW  27  22  81 S6        30.16F WCI  20
6HR MIN TEMP:  27; 6HR MAX TEMP:  29; 6HR PCP:  0.01;

DETROIT        CLOUDY    25  22  88 SE6       30.15F WCI  18
6HR MIN TEMP:  25; 6HR MAX TEMP:  28; 6HR PCP:  0.01;

FLINT          LGT SNOW  26  20  77 S9        30.12F WCI  17
6HR MIN TEMP:  25; 6HR MAX TEMP:  29; 6HR PCP:  0.01;

GROSSE ILE     FLURRIES  28  25  86 S12       30.15F WCI  18
HILLSDALE      CLOUDY    26  23  86 S9        30.07F WCI  17
HOWELL         CLOUDY    24  21  88 SE8       30.09F WCI  15

CITY           SKY/WX    TMP DP  RH WIND       PRES   REMARKS
JACKSON        CLOUDY    26  20  77 SE12      30.07F WCI  16
6HR MIN TEMP:  24; 6HR MAX TEMP:  26; 6HR PCP: TRACE;

LAMBERTVILLE   CLOUDY    30  23  74 S5        30.15F WCI  25
LANSING        CLOUDY    25  19  78 SE14      30.09F WCI  13
6HR MIN TEMP:  24; 6HR MAX TEMP:  27; 6HR PCP: TRACE;

LAPEER         CLOUDY    24  20  87 SE5       30.13F WCI  18
MASON          CLOUDY    26  22  85 SE10      30.08F WCI  16
MONROE         CLOUDY    28  23  80 S8        30.13F WCI  20
MT. CLEMENS    LGT SNOW  25  25 100 S5        30.14F WCI  19
6HR MIN TEMP:  25; 6HR MAX TEMP:  29; 6HR PCP: TRACE;

PONTIAC        LGT SNOW  24  19  81 S7        30.11F WCI  16
6HR MIN TEMP:  23; 6HR MAX TEMP:  27; 6HR PCP: TRACE;

PORT HOPE        N/A     23  17  78 S6        30.13F WCI  16
6HR MIN TEMP:  23; 6HR MAX TEMP:  24;

PORT HURON     FLURRIES  25  21  86 S3        30.17F
TRI CITIES     FLURRIES  26  21  81 SE9       30.12F WCI  17
6HR MIN TEMP:  25; 6HR MAX TEMP:  27; 6HR PCP: TRACE;

TROY           LGT SNOW  27  23  85 S6        30.16F WCI  20
SAGINAW HB     LGT SNOW  27  23  86 SE8       30.11F WCI  18
$$
MIZ043>046-050>051-056>058-064>065-071>073-077>080-290100-
SOUTHWEST LOWER MICHIGAN

CITY           SKY/WX    TMP DP  RH WIND       PRES   REMARKS
BATTLE CREEK   CLOUDY    28  19  69 SE9       30.06F WCI  19
6HR MIN TEMP:  25; 6HR MAX TEMP:  28; 6HR PCP: TRACE;

BENTON HARBOR  CLOUDY    27  20  75 SE8       30.04S WCI  19
6HR MIN TEMP:  24; 6HR MAX TEMP:  27;

BIG RAPIDS     LGT SNOW  23  22  94 SE8       30.04S WCI  14
6HR MIN TEMP:  23; 6HR MAX TEMP:  25;

COLDWATER      CLOUDY    29  22  73 SE10      30.06F WCI  20
6HR MIN TEMP:  26; 6HR MAX TEMP:  29;

FREMONT        CLOUDY    25  18  76 SE6       30.05R WCI  18
HOLLAND        CLOUDY    28  19  69 SE12      30.05R WCI  18
6HR MIN TEMP:  25; 6HR MAX TEMP:  28;

GRAND RAPIDS   CLOUDY    26  19  74 SE10      30.06R WCI  16
6HR MIN TEMP:  24; 6HR MAX TEMP:  26; 6HR PCP: TRACE;

IONIA          CLOUDY    26  21  80 SE12G17   30.05F WCI  16
KALAMAZOO      CLOUDY    28  19  69 S9        30.06S WCI  19
6HR MIN TEMP:  24; 6HR MAX TEMP:  28; 6HR PCP: TRACE;

LUDINGTON      LGT SNOW  23  19  84 SE8       30.03F WCI  14
MARSHALL       CLOUDY    26  19  76 S8G16     30.06F WCI  17
MOUNT PLEASANT FLURRIES  24  21  87 SE6       30.08S WCI  17
6HR MIN TEMP:  24; 6HR MAX TEMP:  26;

MUSKEGON       CLOUDY    27  17  66 SE9       30.05R WCI  18
6HR MIN TEMP:  25; 6HR MAX TEMP:  27; 6HR PCP: TRACE;

SOUTH HAVEN    CLOUDY    29  20  70 S5        30.05R WCI  24
$$
MIZ016>042-290100-
NORTHERN LOWER MICHIGAN

CITY           SKY/WX    TMP DP  RH WIND       PRES   REMARKS
ALPENA         CLOUDY    21  17  84 S8        30.11F WCI  11
6HR MIN TEMP:  21; 6HR MAX TEMP:  23; 6HR PCP: TRACE;

BEAVER ISLAND  FLURRIES  27  24  88 SE8       30.02F WCI  19
6HR MIN TEMP:  24; 6HR MAX TEMP:  27;

BELLAIRE       CLOUDY    24  19  81 SE5       30.05F WCI  18
CADILLAC       LGT SNOW  22  19  88 SE10      30.00F WCI  11
CHARLEVOIX     CLOUDY    23  19  86 SE8       30.06F WCI  14
6HR MIN TEMP:  22; 6HR MAX TEMP:  23;

FRANKFORT      CLOUDY    25  22  91 SE9G17    30.01S FOG     WCI  15
GAYLORD        CLOUDY    20  15  81 S12       30.02F WCI   8
6HR MIN TEMP:  18; 6HR MAX TEMP:  20; 6HR PCP: TRACE;

GRAYLING       CLOUDY    21  18  88 SE7       30.05F WCI  12
6HR MIN TEMP:  20; 6HR MAX TEMP:  21;

HARBOR SPRINGS CLOUDY    23  18  82 E6        30.06S WCI  15
HOUGHTON LAKE  LGT SNOW  21  17  84 SE7       30.05F FOG     WCI  12
6HR MIN TEMP:  20; 6HR MAX TEMP:  21; 6HR PCP:  0.03;

MANISTEE       CLOUDY    25  19  80 SE9       30.02F WCI  15
OSCODA         FLURRIES  22  20  90 CALM      30.12S
PELLSTON       CLOUDY    22  18  85 SE7       30.06F WCI  13
6HR MIN TEMP:  22; 6HR MAX TEMP:  24; 6HR PCP: TRACE;

ROGERS CITY    CLOUDY    22  19  88 S7        30.10F WCI  13
TRAVERSE CITY  LGT SNOW  24  19  81 VRB5      30.03F WCI  18
6HR MIN TEMP:  24; 6HR MAX TEMP:  25; 6HR PCP: TRACE;

$$
MIZ007>008-015-290100-
EASTERN UPPER MICHIGAN

CITY           SKY/WX    TMP DP  RH WIND       PRES   REMARKS
KINROSS        CLOUDY    19  19 100 E8        30.06S WCI   9
6HR MIN TEMP:  18; 6HR MAX TEMP:  19;

MACKINAC ISLAN CLOUDY    24  19  80 S7        30.06R WCI  16
6HR MIN TEMP:  22; 6HR MAX TEMP:  24;

NEWBERRY       LGT SNOW  17  16  94 E7        30.02F WCI   8
6HR MIN TEMP:  15; 6HR MAX TEMP:  19;

S. S. MARIE    CLOUDY    18  14  84 E5        30.06R WCI  11
6HR MIN TEMP:  13; 6HR MAX TEMP:  18; 6HR PCP: TRACE;

MUNISING         N/A     21  14  74 S5        30.01S WCI  15
6HR MIN TEMP:  18; 6HR MAX TEMP:  21;

$$
MIZ004>006-011>014-085-290100-
CENTRAL UPPER MICHIGAN

CITY           SKY/WX    TMP DP  RH WIND       PRES   REMARKS
MANISTIQUE     CLOUDY    20  19  94 NE8       30.01F WCI  10
6HR MIN TEMP:  17; 6HR MAX TEMP:  21;

ESCANABA       CLOUDY    21  19  93 E7        29.97F WCI  13
6HR MIN TEMP:  18; 6HR MAX TEMP:  21;

MENOMINEE      CLOUDY    21  19  93 N5        29.94F WCI  15
6HR MIN TEMP:  18; 6HR MAX TEMP:  25;

SAWYER-GWINN   CLOUDY    16  12  86 S5        29.94F WCI   9
$$
MIZ001>003-009>011-084-290100-
WESTERN UPPER MICHIGAN

CITY           SKY/WX    TMP DP  RH WIND       PRES   REMARKS
IRON MOUNTAIN  LGT SNOW  14  10  84 CALM      29.92F FOG
6HR MIN TEMP:  12; 6HR MAX TEMP:  15; 6HR PCP: TRACE;

HOUGHTON       CLOUDY    18   8  65 E5        29.92F WCI  11
6HR MIN TEMP:  12; 6HR MAX TEMP:  18;

COPPER HARBOR    N/A     15   9  76 SW5       29.98S WCI   8
6HR MIN TEMP:  14; 6HR MAX TEMP:  21;

IRONWOOD       CLOUDY    16  10  79 E3        29.86R
6HR MIN TEMP:  12; 6HR MAX TEMP:  18;

$$

ABBREVIATIONS USED IN REMARKS
   TC - TEMPERATURE IN CELSIUS
  WCI - WIND CHILL INDEX
   HX - HEAT INDEX
  VSB - VISIBILITY



USA.gov is the U.S. government's official web portal to all federal, state and local government web resources and services.